EST,Max TemperatureF,Mean TemperatureF,Min TemperatureF,Max Dew PointF,MeanDew PointF,Min DewpointF,Max Humidity, Mean Humidity, Min Humidity, Max Sea Level PressureIn, Mean Sea Level PressureIn, Min Sea Level PressureIn, Max VisibilityMiles, Mean VisibilityMiles, Min VisibilityMiles, Max Wind SpeedMPH, Mean Wind SpeedMPH, Max Gust SpeedMPH,PrecipitationIn, CloudCover, Events, WindDirDegrees
2011-12-1,62,48,33,46,40,34,100,77,48,30.33,30.25,30.14,10,10,5,12,4,,0.00,0,,16
2011-12-2,64,48,33,45,37,23,100,73,21,30.45,30.39,30.34,10,8,0,8,1,,0.00,0,,42
2011-12-3,68,50,33,54,44,34,100,80,52,30.47,30.44,30.42,10,7,0,16,3,18,0.00,1,,31
2011-12-4,71,65,59,61,58,55,94,86,64,30.39,30.33,30.26,10,9,7,14,8,17,0.00,6,,32
2011-12-5,77,65,53,68,60,54,100,83,54,30.26,30.19,30.13,10,6,0,14,3,18,0.00,4,,127
2011-12-6,77,65,53,68,61,54,100,83,61,30.16,30.12,30.06,10,7,0,12,3,,0.00,3,,161
2011-12-7,78,64,48,64,58,41,94,79,51,30.06,29.96,29.81,10,10,2,25,10,36,0.00,3,,217
2011-12-8,55,46,37,43,37,32,87,73,54,30.32,30.24,30.14,10,10,10,13,6,18,0.00,0,,1
2011-12-9,66,54,42,54,48,41,100,82,64,30.26,30.21,30.16,10,10,10,8,3,,0.00,6,,32
2011-12-10,57,54,51,52,49,45,94,83,72,30.32,30.25,30.18,10,10,7,9,3,,0.00,8,,2
2011-12-11,55,53,51,48,45,41,77,73,67,30.39,30.34,30.30,10,10,10,17,11,26,0.00,8,Thunderstorm,29
2011-12-12,53,50,46,52,48,45,100,92,72,30.42,30.35,30.29,10,8,1,15,9,20,0.00,8,,23
2011-12-13,64,55,46,52,48,45,100,83,59,30.44,30.39,30.35,10,9,5,14,5,18,0.00,5,,11
2011-12-14,69,56,42,55,49,41,100,83,49,30.39,30.35,30.30,10,6,0,12,2,,0.00,0,,65
2011-12-15,75,60,46,63,52,46,100,81,47,30.32,30.26,30.21,10,6,0,9,1,,0.00,3,,152
2011-12-16,77,62,48,59,54,48,100,80,47,30.25,30.21,30.17,10,6,0,12,1,,0.00,6,,238
2011-12-17,71,62,53,59,54,45,100,74,41,30.21,30.16,30.12,10,10,1,12,5,17,0.00,3,,275
2011-12-18,60,48,37,43,35,30,93,61,39,30.34,30.29,30.24,10,10,10,10,4,,0.00,0,,337
2011-12-19,69,52,35,54,46,36,100,79,49,30.36,30.30,30.26,10,9,0,13,3,18,0.00,2,,119
2011-12-20,71,58,44,59,52,45,100,84,53,30.25,30.20,30.14,10,8,0,14,2,18,0.00,2,,146
2011-12-21,77,70,62,63,61,55,94,78,50,30.18,30.12,30.07,10,10,10,16,8,23,0.00,0,,182
2011-12-22,78,71,64,63,61,59,88,71,51,30.16,30.10,30.04,10,10,10,13,7,20,0.00,4,,180
2011-12-23,71,68,64,68,63,59,94,85,78,30.19,30.12,30.06,10,10,2,12,6,,0.00,7,,243
2011-12-24,64,58,53,55,51,46,94,76,68,30.37,30.30,30.23,10,10,10,16,6,22,0.00,4,,17
2011-12-25,69,63,57,61,57,54,94,86,73,30.34,30.29,30.23,10,10,10,13,7,,0.00,6,,37
2011-12-26,60,56,51,54,49,45,100,79,55,30.32,30.26,30.21,10,9,1,18,5,23,0.00,2,,33
2011-12-27,69,60,50,64,56,41,100,76,49,30.13,29.94,29.82,10,10,5,20,11,28,0.00,5,,207
2011-12-28,59,50,41,41,36,32,87,61,36,30.16,30.10,30.02,10,10,10,18,9,29,0.00,0,,270
2011-12-29,62,48,35,43,37,32,100,71,32,30.21,30.13,30.08,10,10,7,8,2,,0.00,0,,229
2011-12-30,66,50,35,52,42,34,100,76,43,30.20,30.13,30.08,10,7,0,10,2,,0.00,3,,157
2011-12-31,73,64,55,59,54,50,94,76,47,30.20,30.12,30.08,10,10,10,17,7,21,0.00,2,,244